weather.gov     
National Weather Service

Regional Weather Roundup
NWS Homepage
This page is being discontinued on March 12, 2014.
The same data is available at this site. Please update your bookmarks.
Thank you, and we apologize for the inconvenience.
Please send an email to SR-SRH.Webmaster@noaa.gov with any concerns.


Current Version
Previous Version:    01  02  03  04  05  06  07  08  09  10  11  12  13  14  15  16  17  18  19  20  21  22  23  24  25  26  
[Printable]
246
ASUS44 KMOB 020610
RWRMOB
REGIONAL WEATHER ROUNDUP
NATIONAL WEATHER SERVICE MOBILE AL
100 AM CDT SAT AUG 02 2014

NOTE: "FAIR" INDICATES FEW OR NO CLOUDS BELOW 12,000 FEET WITH NO
      SIGNIFICANT WEATHER AND/OR OBSTRUCTIONS TO VISIBILITY.

  * THESE STATIONS ARE PART OF THE UNIVERSITY OF SOUTH ALABAMA
    MESONET AND ARE NOT UNDER NWS OR FAA QUALITY CONTROL.

ALZ061>064-020700-
COASTAL ALABAMA

CITY           SKY/WX    TMP DP  RH WIND       PRES   REMARKS
MOBILE REG APT MOCLDY    73  71  93 CALM      30.00F
6HR MIN TEMP:  72; 6HR MAX TEMP:  79;

BROOKLEY FIELD MOCLDY    75  71  87 NW3       30.00F
6HR MIN TEMP:  74; 6HR MAX TEMP:  81; 6HR PCP: TRACE;

USA CAMPUS*      N/A     72  70  94 CALM      29.99F
DOG RIVER*       N/A     75  72  88 CALM      30.00F


CITY           SKY/WX    TMP DP  RH WIND       PRES   REMARKS
MOUNT VERNON*    N/A     70  68  94 CALM      30.00F
SARALAND*      NOT AVBL
BAY MINETTE*   NOT AVBL
LOXLEY*          N/A    N/A N/A N/A CALM      30.00F
ROBERTSDALE*     N/A    N/A N/A N/A CALM      30.00S
FAIRHOPE*        N/A     73  72  94 CALM      29.99S
ELBERTA*       NOT AVBL
FOLEY*         NOT AVBL
GRAND BAY*       N/A     72  70  94 CALM      29.98F
DAUPHIN ISLND* NOT AVBL
BON SCOUR NWR* NOT AVBL
GULF SHORES    PTCLDY    71  70  96 CALM      29.99S

$$

ALZ051>060-020700-
INTERIOR SOUTHWEST AND SOUTH CENTRAL ALABAMA

CITY           SKY/WX    TMP DP  RH WIND       PRES   REMARKS
GREENVILLE     CLOUDY    73  70  90 CALM      30.01
6HR MIN TEMP:  73; 6HR MAX TEMP:  82;

EVERGREEN      CLOUDY    76  72  87 CALM      30.01F
6HR MIN TEMP:  75; 6HR MAX TEMP:  85;

CASTLEBERRY*   NOT AVBL
ATMORE*          N/A     73  73 100 N3        30.02S
DIXIE*         NOT AVBL
ANDALUSIA/OPP  CLOUDY    77  72  84 CALM      30.00F
6HR MIN TEMP:  77; 6HR MAX TEMP:  86;

ANDALUSIA*     NOT AVBL
FLORALA APT    MOCLDY    76  71  85 CALM      30.01F
6HR MIN TEMP:  75; 6HR MAX TEMP:  83;

FLORALA*         N/A     75  72  88 CALM      29.98F

$$

FLZ001>006-020700-
WESTERN FLORIDA PANHANDLE

CITY           SKY/WX    TMP DP  RH WIND       PRES   REMARKS
PENSACOLA      PTCLDY    74  69  85 CALM      29.99S
6HR MIN TEMP:  74; 6HR MAX TEMP:  82;

NAS PENSACOLA  PTCLDY    73  71  93 NW3       29.98F
6HR MIN TEMP:  72; 6HR MAX TEMP:  81;

MILTON         NOT AVBL
WHTNG S FIELD  PTCLDY    77  69  76 NE5       29.99F
6HR MIN TEMP:  75; 6HR MAX TEMP:  83;



CITY           SKY/WX    TMP DP  RH WIND       PRES   REMARKS
WALNUT HILL*   NOT AVBL
JAY*           NOT AVBL
DUKE FIELD     PTCLDY    73  71  94 N2        29.99S
CRESTVIEW      PTCLDY    73  70  90 CALM      30.00F
6HR MIN TEMP:  72; 6HR MAX TEMP:  86;

VALPARAISO     MOCLDY    75  69  79 NW2       29.98S
6HR MIN TEMP:  75; 6HR MAX TEMP:  85;

DESTIN         PTCLDY    80  72  76 N5        29.98S
6HR MIN TEMP:  77; 6HR MAX TEMP:  85;


$$

MSZ076-079-020700-
INTERIOR SOUTHEAST MISSISSIPPI

CITY           SKY/WX    TMP DP  RH WIND       PRES   REMARKS
LEAKESVILLE*     N/A     72  68  88 CALM        N/A
AGRICOLA*      NOT AVBL

$$

MARINE OBSERVATIONS

STATION/POSITION TIME  TEMP    WIND        PRES    WAVE
                       AIR SEA DIR/SP/G            HT/PER
                 (UTC) (F)     (DEG/KT/KT) (MB)    (FT/S)
PASCAGOULA       0600   77      30/  3/  4 1015.3F
PETIT BOIS ISLND 0600   79      30/  6/  6 1015.9S
GRAND BAY        0500   75     350/  3     1017.0S
KATRINA CUT      0500   80      30/  6     1016.3S
CEDAR POINT      0500   77      10/  5     1015.9R
E DAUPHIN ISLAND 0455   81      10/  4/  5 1015.7R
MIDDLE BAY LIGHT 0500   81      10/  7     1014.9S
USCG MOBILE BAY  0600   78 82  350/  3/  4 1014.6F
STATE DOCKS      0600   78 83              1015.5F
MEAHER PARK      0500   78     360/  2     1015.6S
WEEKS BAY        0500   71                   N/A
FORT MORGAN      0600   81      50/  5/  5 1015.1F
12 S ORANGE BCH  0600   82 83   10/  6/  8 1015.5F   0
PENSACOLA BAY    0600   80 84  360/  3/  5 1015.7F
64 S DAUPHIN ISL 0453   82 84   70/  2/  2 1015.4F
67 S FORT MORGAN 0500   82                 1015.2F

$$

SELECTED LOCATIONS ACROSS THE REGION

CITY           SKY/WX    TMP DP  RH WIND       PRES   REMARKS
NEW ORLEANS    CLOUDY    80  70  71 SE8       29.97F
GULFPORT       CLOUDY    77  70  79 CALM      29.98F
PASCAGOULA AP  PTCLDY    69  67  93 CALM      29.99F
PASCAGOULA*      N/A     72  72 100 CALM      29.99F
HATTIESBURG    CLOUDY    74  71  91 CALM      30.01F
LAUREL         MOCLDY    72  68  88 MISG      30.02F
MERIDIAN       CLOUDY    73  69  87 CALM      30.01S
JACKSON        CLOUDY    73  70  90 CALM      30.01S
MONTGOMERY     CLOUDY    76  71  85 E6        30.01F
TROY           PTCLDY    73  70  90 NE3       30.02S
KINSTON*       NOT AVBL
GENEVA*          N/A     72  70  94 CALM      30.01F
ASHFORD*       NOT AVBL
DOTHAN         PTCLDY    73  70  90 NE5       30.03F
PANAMA CITY    CLEAR     73  68  84 NW3       29.96F

$$





U.S. Dept. of Commerce
NOAA National Weather Service
1325 East West Highway
Silver Spring, MD 20910
E-mail: w-nws.webmaster@noaa.gov
Page last modified: May 16, 2007
NATIONAL WEATHER SERVICE: for Safety, for Work, for Fun - FOR LIFE